Wind_Speed
31 30 28 26 26 26 25 24 23 24 22 19 18 18 17 16 15 14 13 13 13 13 13 11 10 10 9 8 10 10 10 10 10 10 10 11 13 13 12 13 13 12 12 13
31 30 28 28 28 27 25 25 25 25 23 21 20 19 18 17 16 15 15 14 14 14 15 13 11 10 10 10 11 12 11 11 11 11 11 11 12 13 12 12 13 13 13 12
31 30 30 29 29 27 26 26 26 26 24 22 21 20 19 18 17 16 16 15 15 15 16 14 12 11 11 10 10 12 13 12 13 12 12 12 13 13 13 13 13 14 13 13
33 32 31 31 29 28 26 27 28 27 24 24 22 20 20 18 18 17 16 16 15 15 16 15 13 12 11 12 12 12 13 14 14 14 13 13 14 14 14 14 14 15 14 14
33 32 31 31 29 28 28 28 28 27 26 25 23 21 20 19 18 17 16 16 16 16 16 16 14 14 13 12 13 13 13 14 13 14 14 14 14 15 15 15 15 15 15 14
34 33 32 31 31 31 30 29 29 28 27 27 24 22 21 19 17 17 16 16 16 16 16 16 15 15 14 13 13 13 14 15 14 14 15 14 15 15 15 15 15 15 15 15
35 34 33 32 32 32 31 30 29 29 28 26 24 23 21 19 17 17 17 16 16 15 15 16 16 16 15 13 13 13 14 15 15 15 15 15 16 15 16 16 16 16 16 16
33 34 33 33 32 32 31 30 29 27 25 25 25 23 21 18 18 18 17 17 17 15 15 16 16 15 14 13 13 13 13 13 13 15 15 14 16 16 16 17 16 16 16 16
32 33 33 32 32 32 32 31 30 28 26 24 24 22 20 18 17 17 17 17 17 16 15 15 15 15 14 14 13 13 13 13 13 13 15 15 15 16 17 18 18 17 16 17
32 32 33 33 34 34 32 31 32 30 27 23 23 22 19 17 16 16 16 16 16 16 16 15 15 14 14 14 14 14 13 13 13 14 15 15 16 16 17 18 19 18 17 18
31 31 33 34 34 33 33 33 33 30 28 22 20 20 19 18 17 16 16 16 16 15 15 15 15 15 14 14 14 14 14 14 14 14 15 16 16 16 17 17 18 18 17 18
30 30 31 32 33 33 32 32 31 30 28 25 20 19 20 18 17 17 17 16 16 15 15 15 15 15 15 14 14 13 13 14 14 15 16 16 16 17 17 17 18 18 18 18
30 31 31 32 33 34 34 33 32 30 28 25 22 19 20 18 18 18 17 17 16 16 15 15 15 15 15 14 14 13 13 14 14 14 15 16 16 17 18 18 18 18 18 19
30 31 31 28 28 31 33 33 32 31 29 26 23 20 20 18 18 18 18 17 17 16 15 15 15 15 15 15 14 13 14 14 14 15 16 17 17 18 19 19 19 19 19 19
30 30 30 30 29 29 30 31 31 31 28 25 23 22 21 19 18 18 18 17 17 16 15 15 15 16 16 16 15 14 14 14 14 15 15 16 17 17 18 19 20 20 20 20
30 30 29 29 29 29 29 29 30 29 28 26 23 22 21 21 19 19 19 18 17 16 16 16 15 16 17 16 15 15 15 15 15 15 15 16 17 18 19 19 20 21 21 21
30 29 29 28 28 29 30 29 28 28 27 26 25 23 22 21 20 20 19 19 18 17 17 16 16 15 16 16 16 16 16 16 16 16 16 17 17 18 19 20 20 20 20 21
32 30 29 28 28 29 28 28 27 27 26 26 25 24 23 22 21 21 20 19 19 18 18 18 17 16 16 16 16 17 17 17 17 17 17 18 18 18 19 19 19 20 20 20
32 32 30 29 28 28 29 28 28 27 26 26 25 23 23 23 23 22 21 21 20 19 19 19 19 18 18 17 17 17 17 17 18 18 19 19 19 19 19 19 19 20 21 21
32 32 31 30 28 27 28 27 26 25 25 25 24 24 23 23 23 22 22 22 20 20 20 19 19 19 19 18 18 18 17 18 18 19 19 19 19 20 20 20 20 21 21 22
32 33 32 30 29 28 27 25 26 27 26 24 23 23 23 23 23 23 23 22 22 21 21 20 19 19 19 19 19 19 19 18 18 19 19 19 19 19 20 20 21 21 22 22
31 32 32 32 31 29 27 26 27 26 25 24 23 22 23 23 23 23 23 22 22 22 21 21 20 19 19 19 19 19 19 19 18 19 19 19 18 18 19 19 19 20 20 21
31 32 32 32 31 28 26 26 25 25 24 24 23 23 23 23 23 23 23 22 22 22 22 21 21 21 20 19 19 19 19 19 19 19 19 19 18 18 18 18 19 20 21 21
30 30 30 30 29 26 26 26 25 25 24 24 23 23 23 23 23 23 22 21 21 22 22 21 21 21 20 20 20 20 19 19 19 19 19 19 18 18 19 19 19 20 20 21
30 30 30 29 28 27 26 26 26 25 24 24 24 24 23 23 23 23 22 21 21 22 22 22 21 21 21 21 21 21 20 20 20 19 19 19 19 19 19 19 20 20 21 22
29 30 31 31 29 27 26 26 25 25 25 25 25 24 24 24 23 23 22 21 21 21 21 21 21 21 21 21 21 21 20 20 20 19 19 20 20 20 20 20 21 21 22 22
Wind_Direction
235 235 235 235 233 234 234 234 237 241 243 242 242 242 246 245 248 253 257 260 264 266 270 274 278 278 274 268 258 251 245 241 240 239 237 233 227 224 226 226 222 221 219 220
233 233 232 231 231 232 232 232 235 240 241 241 242 242 244 245 246 251 255 258 259 262 268 271 274 273 273 272 267 252 245 238 235 238 242 237 230 225 225 223 222 222 224 222
232 230 229 230 230 231 230 229 232 237 240 241 243 244 245 245 247 251 253 256 259 261 265 267 269 270 271 274 266 253 247 243 238 238 239 235 232 230 230 224 223 224 226 224
229 228 227 228 228 229 228 228 230 234 237 240 241 242 247 247 249 251 253 255 259 259 262 264 264 267 270 271 265 259 250 247 244 241 238 235 232 231 229 227 225 226 227 227
229 228 226 226 226 225 225 226 229 232 235 238 240 237 246 248 250 251 252 253 255 257 260 262 261 264 267 267 264 261 253 247 243 243 239 237 234 233 228 228 228 228 228 229
226 226 224 223 223 223 223 224 228 231 234 237 240 239 242 250 249 250 251 251 251 253 256 257 257 260 265 265 264 261 252 247 245 244 239 238 235 232 227 226 227 229 230 232
227 226 224 222 222 222 221 222 226 229 233 237 240 240 241 246 245 246 247 247 246 249 253 253 254 258 262 264 265 265 254 252 249 244 240 240 236 233 230 229 231 231 231 232
226 226 224 222 221 222 222 223 225 229 236 237 241 240 243 243 245 245 245 244 243 247 252 253 254 257 258 262 265 266 255 252 246 244 238 237 234 233 233 233 232 233 234 234
223 224 223 221 221 221 221 222 224 227 231 232 242 241 243 242 244 244 245 243 242 246 252 254 256 257 255 259 262 259 254 248 246 243 237 238 236 236 235 235 236 236 238 237
220 222 221 220 220 220 221 222 223 224 226 230 240 243 242 241 240 242 242 241 241 246 249 254 256 254 254 257 258 254 250 248 247 245 240 241 241 241 239 239 238 239 240 238
218 219 221 220 220 221 221 221 223 225 226 226 236 243 239 237 238 240 239 238 240 245 248 249 253 252 254 255 255 254 251 251 248 246 242 242 243 245 243 240 237 237 239 240
216 217 221 221 221 220 221 223 225 225 228 226 225 241 239 234 235 238 239 239 240 245 249 249 250 250 251 251 250 251 251 250 249 244 244 244 244 245 243 243 240 239 242 242
215 215 217 220 221 220 220 221 222 224 228 228 225 235 239 233 235 237 237 237 241 246 248 248 247 247 248 246 245 248 249 248 248 247 247 248 249 246 244 244 241 243 244 244
216 217 215 218 224 225 224 223 222 223 224 228 225 228 237 232 234 235 236 238 242 246 245 246 247 247 245 244 245 249 250 249 251 252 251 251 250 247 245 244 244 246 248 247
215 217 217 215 218 224 225 225 224 224 224 225 228 229 232 231 231 234 235 239 242 243 243 246 246 243 243 244 245 248 250 250 253 253 251 251 250 248 246 246 246 247 249 249
214 215 216 217 219 222 223 223 223 223 223 223 224 227 227 230 232 233 234 237 238 240 244 246 247 244 244 244 245 248 251 253 253 252 251 252 253 252 250 248 249 250 250 249
213 214 214 215 218 219 221 220 221 222 222 222 223 224 225 229 232 233 234 236 237 238 241 242 244 245 243 243 244 248 253 254 253 253 254 256 257 257 253 250 252 252 251 250
213 212 213 213 217 219 221 219 219 221 221 222 222 223 225 227 230 233 234 236 238 239 241 242 243 245 244 245 248 252 254 255 254 255 258 258 258 258 256 253 255 254 252 250
212 212 212 213 218 221 221 218 218 220 221 222 222 222 224 226 230 233 234 237 241 244 244 245 245 245 244 247 250 252 254 255 255 256 259 259 258 257 256 255 254 253 253 252
210 211 211 211 213 218 221 216 216 217 219 219 220 221 223 225 229 232 236 240 244 245 244 243 244 245 245 247 251 253 255 256 257 257 259 259 258 256 255 253 254 254 252 252
208 209 211 211 213 218 218 214 213 217 218 218 218 220 222 224 228 232 238 241 243 243 242 242 244 245 246 249 253 256 256 257 259 259 259 260 260 256 254 254 255 254 253 253
207 209 210 211 213 217 216 214 215 217 218 219 220 221 223 225 228 233 236 238 242 243 242 243 244 246 249 252 255 255 255 257 259 259 261 262 260 257 253 254 253 252 253 253
207 208 208 209 212 214 211 212 215 217 216 218 220 222 225 227 230 232 235 239 243 243 243 245 247 249 251 253 254 255 256 257 258 260 261 260 260 256 253 253 253 255 255 255
209 210 211 211 211 211 211 213 214 215 217 219 221 223 226 230 232 234 238 239 241 243 244 245 248 248 250 254 256 257 258 259 261 261 259 256 257 257 255 254 255 257 258 257
209 210 211 211 210 212 214 213 215 217 217 219 222 224 227 231 233 235 236 239 241 244 245 244 246 248 250 253 258 258 258 258 260 260 258 256 254 256 257 257 259 261 261 262
207 208 209 212 212 213 214 215 215 218 220 221 222 225 228 231 233 233 235 238 240 242 245 247 248 249 251 254 255 255 256 256 256 257 259 257 255 257 258 259 260 261 262 262
Height
5826 5832 5836 5840 5844 5847 5850 5852 5854 5856 5858 5861 5863 5865 5866 5867 5869 5870 5870 5871 5871 5871 5871 5871 5870 5870 5870 5869 5870 5870 5870 5871 5872 5872 5873 5874 5875 5876 5878 5879 5881 5882 5884 5885
5821 5825 5830 5833 5836 5840 5844 5847 5849 5851 5853 5856 5858 5861 5862 5863 5865 5866 5867 5868 5868 5868 5868 5868 5868 5868 5867 5867 5867 5867 5868 5868 5869 5870 5871 5872 5873 5874 5875 5877 5878 5880 5882 5883
5814 5820 5822 5826 5830 5834 5838 5842 5844 5846 5849 5852 5855 5857 5858 5860 5861 5863 5864 5864 5865 5865 5865 5865 5865 5865 5865 5864 5864 5864 5865 5866 5866 5867 5868 5869 5870 5872 5873 5875 5876 5878 5880 5882
5806 5811 5816 5820 5824 5829 5833 5836 5838 5841 5844 5847 5850 5853 5854 5856 5857 5859 5860 5861 5861 5862 5862 5862 5862 5862 5862 5861 5861 5862 5862 5863 5864 5864 5865 5866 5867 5869 5871 5872 5874 5876 5878 5879
5800 5805 5809 5814 5819 5823 5827 5830 5833 5836 5840 5843 5845 5849 5852 5852 5853 5855 5856 5857 5857 5858 5859 5859 5859 5859 5859 5858 5858 5859 5859 5860 5860 5861 5862 5863 5864 5866 5868 5870 5872 5873 5875 5877
5792 5797 5803 5808 5812 5816 5820 5825 5828 5831 5835 5838 5841 5845 5848 5848 5850 5851 5852 5853 5853 5854 5855 5855 5856 5856 5855 5855 5855 5855 5856 5857 5857 5858 5859 5860 5861 5863 5865 5868 5869 5871 5873 5874
5786 5791 5796 5801 5806 5810 5815 5820 5824 5826 5829 5833 5837 5839 5843 5844 5846 5847 5848 5849 5849 5850 5851 5852 5852 5852 5852 5852 5852 5852 5852 5853 5854 5855 5856 5857 5859 5860 5863 5865 5866 5868 5870 5872
5780 5785 5790 5795 5800 5805 5810 5815 5820 5824 5827 5830 5831 5834 5838 5839 5841 5842 5843 5844 5846 5847 5847 5848 5848 5848 5848 5848 5848 5849 5849 5850 5850 5851 5852 5854 5855 5857 5860 5862 5863 5865 5867 5869
5775 5780 5785 5790 5795 5799 5804 5808 5815 5819 5822 5826 5827 5830 5833 5835 5836 5838 5839 5840 5841 5843 5844 5844 5844 5844 5844 5845 5845 5845 5846 5846 5847 5848 5849 5851 5853 5855 5856 5858 5860 5862 5864 5865
5768 5774 5778 5783 5788 5792 5798 5804 5807 5812 5816 5821 5824 5826 5829 5830 5832 5833 5834 5836 5837 5839 5840 5840 5840 5840 5841 5841 5842 5842 5843 5843 5844 5845 5847 5848 5850 5851 5853 5855 5857 5858 5860 5862
5762 5768 5772 5777 5781 5787 5793 5797 5801 5807 5812 5818 5822 5825 5824 5826 5828 5829 5830 5832 5833 5835 5835 5836 5837 5837 5837 5838 5838 5839 5839 5840 5841 5842 5844 5845 5846 5848 5849 5851 5853 5855 5856 5858
5757 5763 5767 5772 5777 5782 5787 5792 5797 5803 5807 5812 5817 5822 5819 5821 5823 5825 5826 5828 5829 5831 5831 5832 5833 5833 5834 5835 5835 5836 5836 5837 5838 5839 5840 5841 5843 5844 5846 5847 5849 5851 5852 5854
5751 5756 5762 5766 5772 5776 5780 5785 5791 5797 5801 5806 5812 5817 5814 5817 5819 5821 5822 5824 5825 5826 5827 5828 5829 5830 5831 5831 5832 5833 5833 5834 5835 5836 5837 5838 5839 5841 5842 5843 5845 5847 5848 5850
5746 5751 5758 5764 5768 5771 5776 5781 5786 5791 5796 5801 5806 5810 5810 5813 5815 5816 5818 5819 5821 5822 5823 5824 5825 5826 5827 5828 5828 5829 5830 5831 5832 5833 5834 5834 5835 5837 5838 5839 5841 5842 5844 5845
5740 5746 5752 5757 5762 5766 5770 5775 5780 5785 5791 5797 5801 5804 5806 5808 5810 5812 5814 5815 5817 5818 5819 5820 5821 5822 5823 5824 5825 5826 5827 5828 5829 5829 5830 5831 5832 5833 5834 5835 5837 5838 5839 5840
5735 5741 5746 5751 5756 5761 5765 5770 5775 5780 5785 5790 5795 5799 5801 5803 5805 5807 5809 5811 5813 5814 5815 5816 5817 5818 5819 5820 5821 5823 5824 5824 5825 5826 5826 5827 5828 5829 5830 5831 5832 5833 5834 5835
5730 5736 5741 5747 5751 5755 5760 5765 5770 5775 5780 5785 5790 5794 5796 5798 5800 5803 5805 5807 5808 5810 5811 5812 5813 5814 5815 5817 5818 5819 5820 5820 5821 5822 5823 5823 5824 5824 5825 5826 5827 5828 5829 5830
5725 5730 5736 5742 5747 5750 5757 5760 5765 5770 5774 5779 5784 5787 5791 5793 5796 5798 5800 5802 5804 5805 5807 5808 5809 5811 5812 5813 5814 5815 5815 5816 5817 5818 5818 5818 5819 5819 5820 5821 5822 5822 5823 5824
5719 5725 5731 5737 5741 5746 5751 5755 5760 5765 5769 5774 5778 5782 5785 5788 5791 5793 5796 5797 5799 5801 5802 5803 5805 5806 5807 5809 5809 5810 5811 5812 5812 5813 5813 5814 5814 5814 5815 5815 5816 5817 5818 5819
5713 5719 5726 5731 5737 5742 5746 5750 5755 5761 5765 5769 5773 5777 5780 5784 5787 5789 5791 5792 5794 5796 5797 5799 5800 5801 5803 5804 5805 5806 5806 5807 5808 5808 5808 5809 5809 5809 5810 5810 5811 5812 5812 5813
5708 5713 5719 5726 5731 5736 5740 5746 5751 5757 5761 5764 5768 5772 5775 5778 5781 5784 5785 5787 5789 5791 5792 5794 5795 5796 5798 5799 5800 5801 5801 5802 5803 5803 5803 5804 5804 5804 5804 5805 5805 5806 5807 5808
5703 5708 5714 5720 5726 5732 5736 5741 5746 5750 5755 5759 5763 5766 5770 5773 5775 5778 5780 5782 5783 5785 5787 5789 5790 5791 5792 5794 5795 5795 5796 5797 5797 5798 5798 5798 5798 5799 5799 5800 5800 5800 5801 5802
5697 5703 5708 5714 5721 5726 5731 5736 5741 5745 5749 5754 5758 5761 5764 5767 5770 5772 5774 5776 5778 5780 5782 5783 5785 5786 5787 5788 5789 5790 5791 5791 5792 5792 5792 5793 5793 5794 5794 5795 5795 5795 5796 5797
5692 5698 5704 5710 5716 5721 5726 5731 5735 5740 5744 5748 5752 5756 5759 5762 5764 5767 5769 5771 5773 5774 5776 5778 5779 5781 5782 5783 5784 5785 5785 5786 5786 5787 5787 5787 5788 5788 5789 5789 5790 5790 5791 5791
5688 5693 5699 5705 5711 5716 5721 5726 5731 5735 5739 5743 5747 5750 5753 5756 5758 5761 5763 5765 5767 5769 5770 5772 5774 5775 5776 5777 5778 5779 5779 5780 5780 5781 5781 5782 5783 5783 5783 5784 5785 5785 5786 5786
5683 5689 5694 5700 5705 5711 5716 5721 5725 5730 5734 5737 5741 5744 5748 5750 5753 5755 5758 5760 5762 5763 5765 5766 5767 5769 5770 5771 5772 5773 5774 5774 5775 5775 5776 5776 5777 5778 5778 5779 5779 5780 5780 5780